Tracking 25648 objects as of 16-May-2022
HD Live streaming from Space Station
objects crossing your sky now

COSMOS 2251 DEB

Track COSMOS 2251 DEB now!
10-day predictions


NORAD ID: 35464
Int'l Code: 1993-036ALJ
Perigee: 641.0 km
Apogee: 710.8 km
Inclination: 74.0 °
Period: 98.1 minutes
Semi major axis: 7046 km
RCS: 0.0073 m2 (small)
Launch date: June 16, 1993
Source: Commonwealth of Independent States (former USSR) (CIS)
Launch site: PLESETSK MISSILE AND SPACE COMPLEX (PKMTR)

Note: This is SATELLITE DEBRIS
aabbcc
Your satellite tracking list
Your tracking list is empty




NASA's NSSDC Master Catalog

Two Line Element Set (TLE):
1 35464U 93036ALJ 22135.53480365  .00006530  00000-0  11334-2 0  9998
2 35464  74.0122 160.4419 0049567 267.1108 246.4917 14.67591280695153
Source of the keplerian elements: AFSPC